Index of /20260412/WXO-DD/model_gdps/15km/12/111
Name Last modified Size Description
Parent Directory -
20260412T12Z_MSC_GDPS_AbsoluteVorticity_IsbL-0200_LatLon0.15_PT111H.grib2 2026-04-12 16:46 1.5M
20260412T12Z_MSC_GDPS_AbsoluteVorticity_IsbL-0250_LatLon0.15_PT111H.grib2 2026-04-12 16:46 1.3M
20260412T12Z_MSC_GDPS_AbsoluteVorticity_IsbL-0500_LatLon0.15_PT111H.grib2 2026-04-12 16:46 1.4M
20260412T12Z_MSC_GDPS_AbsoluteVorticity_IsbL-0700_LatLon0.15_PT111H.grib2 2026-04-12 16:46 1.6M
20260412T12Z_MSC_GDPS_AbsoluteVorticity_IsbL-0850_LatLon0.15_PT111H.grib2 2026-04-12 16:46 1.6M
20260412T12Z_MSC_GDPS_AirTemp_AGL-120m_LatLon0.15_PT111H.grib2 2026-04-12 16:46 912K
20260412T12Z_MSC_GDPS_AirTemp_AGL-2m_LatLon0.15_PT111H.grib2 2026-04-12 16:46 1.0M
20260412T12Z_MSC_GDPS_AirTemp_AGL-40m_LatLon0.15_PT111H.grib2 2026-04-12 16:46 932K
20260412T12Z_MSC_GDPS_AirTemp_AGL-80m_LatLon0.15_PT111H.grib2 2026-04-12 16:46 920K
20260412T12Z_MSC_GDPS_AirTemp_IsbL-0001_LatLon0.15_PT111H.grib2 2026-04-12 16:46 637K
20260412T12Z_MSC_GDPS_AirTemp_IsbL-0005_LatLon0.15_PT111H.grib2 2026-04-12 16:46 675K
20260412T12Z_MSC_GDPS_AirTemp_IsbL-0010_LatLon0.15_PT111H.grib2 2026-04-12 16:46 747K
20260412T12Z_MSC_GDPS_AirTemp_IsbL-0020_LatLon0.15_PT111H.grib2 2026-04-12 16:46 690K
20260412T12Z_MSC_GDPS_AirTemp_IsbL-0030_LatLon0.15_PT111H.grib2 2026-04-12 16:46 743K
20260412T12Z_MSC_GDPS_AirTemp_IsbL-0050_LatLon0.15_PT111H.grib2 2026-04-12 16:46 808K
20260412T12Z_MSC_GDPS_AirTemp_IsbL-0100_LatLon0.15_PT111H.grib2 2026-04-12 16:46 953K
20260412T12Z_MSC_GDPS_AirTemp_IsbL-0150_LatLon0.15_PT111H.grib2 2026-04-12 16:46 957K
20260412T12Z_MSC_GDPS_AirTemp_IsbL-0175_LatLon0.15_PT111H.grib2 2026-04-12 16:46 947K
20260412T12Z_MSC_GDPS_AirTemp_IsbL-0200_LatLon0.15_PT111H.grib2 2026-04-12 16:46 962K
20260412T12Z_MSC_GDPS_AirTemp_IsbL-0225_LatLon0.15_PT111H.grib2 2026-04-12 16:46 968K
20260412T12Z_MSC_GDPS_AirTemp_IsbL-0250_LatLon0.15_PT111H.grib2 2026-04-12 16:46 1.0M
20260412T12Z_MSC_GDPS_AirTemp_IsbL-0275_LatLon0.15_PT111H.grib2 2026-04-12 16:46 1.0M
20260412T12Z_MSC_GDPS_AirTemp_IsbL-0300_LatLon0.15_PT111H.grib2 2026-04-12 16:46 944K
20260412T12Z_MSC_GDPS_AirTemp_IsbL-0350_LatLon0.15_PT111H.grib2 2026-04-12 16:46 919K
20260412T12Z_MSC_GDPS_AirTemp_IsbL-0400_LatLon0.15_PT111H.grib2 2026-04-12 16:46 934K
20260412T12Z_MSC_GDPS_AirTemp_IsbL-0450_LatLon0.15_PT111H.grib2 2026-04-12 16:46 953K
20260412T12Z_MSC_GDPS_AirTemp_IsbL-0500_LatLon0.15_PT111H.grib2 2026-04-12 16:46 1.0M
20260412T12Z_MSC_GDPS_AirTemp_IsbL-0550_LatLon0.15_PT111H.grib2 2026-04-12 16:46 1.0M
20260412T12Z_MSC_GDPS_AirTemp_IsbL-0600_LatLon0.15_PT111H.grib2 2026-04-12 16:46 879K
20260412T12Z_MSC_GDPS_AirTemp_IsbL-0650_LatLon0.15_PT111H.grib2 2026-04-12 16:46 906K
20260412T12Z_MSC_GDPS_AirTemp_IsbL-0700_LatLon0.15_PT111H.grib2 2026-04-12 16:46 939K
20260412T12Z_MSC_GDPS_AirTemp_IsbL-0750_LatLon0.15_PT111H.grib2 2026-04-12 16:46 1.0M
20260412T12Z_MSC_GDPS_AirTemp_IsbL-0800_LatLon0.15_PT111H.grib2 2026-04-12 16:46 1.1M
20260412T12Z_MSC_GDPS_AirTemp_IsbL-0850_LatLon0.15_PT111H.grib2 2026-04-12 16:46 1.1M
20260412T12Z_MSC_GDPS_AirTemp_IsbL-0875_LatLon0.15_PT111H.grib2 2026-04-12 16:46 1.2M
20260412T12Z_MSC_GDPS_AirTemp_IsbL-0900_LatLon0.15_PT111H.grib2 2026-04-12 16:46 1.1M
20260412T12Z_MSC_GDPS_AirTemp_IsbL-0925_LatLon0.15_PT111H.grib2 2026-04-12 16:46 1.1M
20260412T12Z_MSC_GDPS_AirTemp_IsbL-0950_LatLon0.15_PT111H.grib2 2026-04-12 16:46 1.1M
20260412T12Z_MSC_GDPS_AirTemp_IsbL-0970_LatLon0.15_PT111H.grib2 2026-04-12 16:46 1.1M
20260412T12Z_MSC_GDPS_AirTemp_IsbL-0985_LatLon0.15_PT111H.grib2 2026-04-12 16:46 1.1M
20260412T12Z_MSC_GDPS_AirTemp_IsbL-1000_LatLon0.15_PT111H.grib2 2026-04-12 16:46 1.1M
20260412T12Z_MSC_GDPS_AirTemp_IsbL-1015_LatLon0.15_PT111H.grib2 2026-04-12 16:46 1.1M
20260412T12Z_MSC_GDPS_Albedo_Sfc_LatLon0.15_PT111H.grib2 2026-04-12 16:46 247K
20260412T12Z_MSC_GDPS_CAPE_Sfc_LatLon0.15_PT111H.grib2 2026-04-12 16:46 3.9M
20260412T12Z_MSC_GDPS_CIN_Sfc_LatLon0.15_PT111H.grib2 2026-04-12 16:46 2.8M
20260412T12Z_MSC_GDPS_CloudWater_EAtm_LatLon0.15_PT111H.grib2 2026-04-12 16:46 526K
20260412T12Z_MSC_GDPS_ConvectivePrecip-Accum_Sfc_LatLon0.15_PT111H.grib2 2026-04-12 16:46 3.3M
20260412T12Z_MSC_GDPS_DewPointDepression_AGL-2m_LatLon0.15_PT111H.grib2 2026-04-12 16:46 749K
20260412T12Z_MSC_GDPS_DewPointDepression_IsbL-0010_LatLon0.15_PT111H.grib2 2026-04-12 16:46 11K
20260412T12Z_MSC_GDPS_DewPointDepression_IsbL-0020_LatLon0.15_PT111H.grib2 2026-04-12 16:46 53K
20260412T12Z_MSC_GDPS_DewPointDepression_IsbL-0030_LatLon0.15_PT111H.grib2 2026-04-12 16:46 70K
20260412T12Z_MSC_GDPS_DewPointDepression_IsbL-0050_LatLon0.15_PT111H.grib2 2026-04-12 16:46 361K
20260412T12Z_MSC_GDPS_DewPointDepression_IsbL-0100_LatLon0.15_PT111H.grib2 2026-04-12 16:46 374K
20260412T12Z_MSC_GDPS_DewPointDepression_IsbL-0150_LatLon0.15_PT111H.grib2 2026-04-12 16:46 455K
20260412T12Z_MSC_GDPS_DewPointDepression_IsbL-0175_LatLon0.15_PT111H.grib2 2026-04-12 16:46 532K
20260412T12Z_MSC_GDPS_DewPointDepression_IsbL-0200_LatLon0.15_PT111H.grib2 2026-04-12 16:46 622K
20260412T12Z_MSC_GDPS_DewPointDepression_IsbL-0225_LatLon0.15_PT111H.grib2 2026-04-12 16:46 758K
20260412T12Z_MSC_GDPS_DewPointDepression_IsbL-0250_LatLon0.15_PT111H.grib2 2026-04-12 16:46 868K
20260412T12Z_MSC_GDPS_DewPointDepression_IsbL-0275_LatLon0.15_PT111H.grib2 2026-04-12 16:46 888K
20260412T12Z_MSC_GDPS_DewPointDepression_IsbL-0300_LatLon0.15_PT111H.grib2 2026-04-12 16:46 929K
20260412T12Z_MSC_GDPS_DewPointDepression_IsbL-0350_LatLon0.15_PT111H.grib2 2026-04-12 16:46 960K
20260412T12Z_MSC_GDPS_DewPointDepression_IsbL-0400_LatLon0.15_PT111H.grib2 2026-04-12 16:46 1.0M
20260412T12Z_MSC_GDPS_DewPointDepression_IsbL-0450_LatLon0.15_PT111H.grib2 2026-04-12 16:46 1.0M
20260412T12Z_MSC_GDPS_DewPointDepression_IsbL-0500_LatLon0.15_PT111H.grib2 2026-04-12 16:46 1.0M
20260412T12Z_MSC_GDPS_DewPointDepression_IsbL-0550_LatLon0.15_PT111H.grib2 2026-04-12 16:46 1.0M
20260412T12Z_MSC_GDPS_DewPointDepression_IsbL-0600_LatLon0.15_PT111H.grib2 2026-04-12 16:46 1.1M
20260412T12Z_MSC_GDPS_DewPointDepression_IsbL-0650_LatLon0.15_PT111H.grib2 2026-04-12 16:46 1.1M
20260412T12Z_MSC_GDPS_DewPointDepression_IsbL-0700_LatLon0.15_PT111H.grib2 2026-04-12 16:46 1.1M
20260412T12Z_MSC_GDPS_DewPointDepression_IsbL-0750_LatLon0.15_PT111H.grib2 2026-04-12 16:46 1.1M
20260412T12Z_MSC_GDPS_DewPointDepression_IsbL-0800_LatLon0.15_PT111H.grib2 2026-04-12 16:46 1.2M
20260412T12Z_MSC_GDPS_DewPointDepression_IsbL-0850_LatLon0.15_PT111H.grib2 2026-04-12 16:46 1.2M
20260412T12Z_MSC_GDPS_DewPointDepression_IsbL-0875_LatLon0.15_PT111H.grib2 2026-04-12 16:46 1.1M
20260412T12Z_MSC_GDPS_DewPointDepression_IsbL-0900_LatLon0.15_PT111H.grib2 2026-04-12 16:46 1.1M
20260412T12Z_MSC_GDPS_DewPointDepression_IsbL-0925_LatLon0.15_PT111H.grib2 2026-04-12 16:46 1.0M
20260412T12Z_MSC_GDPS_DewPointDepression_IsbL-0950_LatLon0.15_PT111H.grib2 2026-04-12 16:46 1.0M
20260412T12Z_MSC_GDPS_DewPointDepression_IsbL-0970_LatLon0.15_PT111H.grib2 2026-04-12 16:46 1.0M
20260412T12Z_MSC_GDPS_DewPointDepression_IsbL-0985_LatLon0.15_PT111H.grib2 2026-04-12 16:46 1.0M
20260412T12Z_MSC_GDPS_DewPointDepression_IsbL-1000_LatLon0.15_PT111H.grib2 2026-04-12 16:46 968K
20260412T12Z_MSC_GDPS_DewPointDepression_IsbL-1015_LatLon0.15_PT111H.grib2 2026-04-12 16:46 908K
20260412T12Z_MSC_GDPS_DewPoint_AGL-2m_LatLon0.15_PT111H.grib2 2026-04-12 16:46 608K
20260412T12Z_MSC_GDPS_DownwardLongwaveRadiationFlux-Accum_Sfc_LatLon0.15_PT111H.grib2 2026-04-12 16:46 785K
20260412T12Z_MSC_GDPS_DownwardShortwaveRadiationFlux-Accum_NTAtm_LatLon0.15_PT111H.grib2 2026-04-12 16:46 321K
20260412T12Z_MSC_GDPS_DownwardShortwaveRadiationFlux-Accum_Sfc_LatLon0.15_PT111H.grib2 2026-04-12 16:46 1.0M
20260412T12Z_MSC_GDPS_FreezingRain-Accum1h_Sfc_LatLon0.15_PT111H.grib2 2026-04-12 16:46 42K
20260412T12Z_MSC_GDPS_FreezingRain-Accum3h_Sfc_LatLon0.15_PT111H.grib2 2026-04-12 16:46 50K
20260412T12Z_MSC_GDPS_FreezingRain-Accum_Sfc_LatLon0.15_PT111H.grib2 2026-04-12 16:46 239K
20260412T12Z_MSC_GDPS_GeopotentialHeight_IsbL-0001_LatLon0.15_PT111H.grib2 2026-04-12 16:46 526K
20260412T12Z_MSC_GDPS_GeopotentialHeight_IsbL-0005_LatLon0.15_PT111H.grib2 2026-04-12 16:46 491K
20260412T12Z_MSC_GDPS_GeopotentialHeight_IsbL-0010_LatLon0.15_PT111H.grib2 2026-04-12 16:46 574K
20260412T12Z_MSC_GDPS_GeopotentialHeight_IsbL-0020_LatLon0.15_PT111H.grib2 2026-04-12 16:46 568K
20260412T12Z_MSC_GDPS_GeopotentialHeight_IsbL-0030_LatLon0.15_PT111H.grib2 2026-04-12 16:46 572K
20260412T12Z_MSC_GDPS_GeopotentialHeight_IsbL-0050_LatLon0.15_PT111H.grib2 2026-04-12 16:46 506K
20260412T12Z_MSC_GDPS_GeopotentialHeight_IsbL-0100_LatLon0.15_PT111H.grib2 2026-04-12 16:46 610K
20260412T12Z_MSC_GDPS_GeopotentialHeight_IsbL-0150_LatLon0.15_PT111H.grib2 2026-04-12 16:46 622K
20260412T12Z_MSC_GDPS_GeopotentialHeight_IsbL-0175_LatLon0.15_PT111H.grib2 2026-04-12 16:46 625K
20260412T12Z_MSC_GDPS_GeopotentialHeight_IsbL-0200_LatLon0.15_PT111H.grib2 2026-04-12 16:46 629K
20260412T12Z_MSC_GDPS_GeopotentialHeight_IsbL-0225_LatLon0.15_PT111H.grib2 2026-04-12 16:46 632K
20260412T12Z_MSC_GDPS_GeopotentialHeight_IsbL-0250_LatLon0.15_PT111H.grib2 2026-04-12 16:46 636K
20260412T12Z_MSC_GDPS_GeopotentialHeight_IsbL-0275_LatLon0.15_PT111H.grib2 2026-04-12 16:46 635K
20260412T12Z_MSC_GDPS_GeopotentialHeight_IsbL-0300_LatLon0.15_PT111H.grib2 2026-04-12 16:46 634K
20260412T12Z_MSC_GDPS_GeopotentialHeight_IsbL-0350_LatLon0.15_PT111H.grib2 2026-04-12 16:46 624K
20260412T12Z_MSC_GDPS_GeopotentialHeight_IsbL-0400_LatLon0.15_PT111H.grib2 2026-04-12 16:46 545K
20260412T12Z_MSC_GDPS_GeopotentialHeight_IsbL-0450_LatLon0.15_PT111H.grib2 2026-04-12 16:46 534K
20260412T12Z_MSC_GDPS_GeopotentialHeight_IsbL-0500_LatLon0.15_PT111H.grib2 2026-04-12 16:46 687K
20260412T12Z_MSC_GDPS_GeopotentialHeight_IsbL-0550_LatLon0.15_PT111H.grib2 2026-04-12 16:46 685K
20260412T12Z_MSC_GDPS_GeopotentialHeight_IsbL-0600_LatLon0.15_PT111H.grib2 2026-04-12 16:46 676K
20260412T12Z_MSC_GDPS_GeopotentialHeight_IsbL-0650_LatLon0.15_PT111H.grib2 2026-04-12 16:46 674K
20260412T12Z_MSC_GDPS_GeopotentialHeight_IsbL-0700_LatLon0.15_PT111H.grib2 2026-04-12 16:46 676K
20260412T12Z_MSC_GDPS_GeopotentialHeight_IsbL-0750_LatLon0.15_PT111H.grib2 2026-04-12 16:46 683K
20260412T12Z_MSC_GDPS_GeopotentialHeight_IsbL-0800_LatLon0.15_PT111H.grib2 2026-04-12 16:46 696K
20260412T12Z_MSC_GDPS_GeopotentialHeight_IsbL-0850_LatLon0.15_PT111H.grib2 2026-04-12 16:46 704K
20260412T12Z_MSC_GDPS_GeopotentialHeight_IsbL-0875_LatLon0.15_PT111H.grib2 2026-04-12 16:46 710K
20260412T12Z_MSC_GDPS_GeopotentialHeight_IsbL-0900_LatLon0.15_PT111H.grib2 2026-04-12 16:46 722K
20260412T12Z_MSC_GDPS_GeopotentialHeight_IsbL-0925_LatLon0.15_PT111H.grib2 2026-04-12 16:46 725K
20260412T12Z_MSC_GDPS_GeopotentialHeight_IsbL-0950_LatLon0.15_PT111H.grib2 2026-04-12 16:46 733K
20260412T12Z_MSC_GDPS_GeopotentialHeight_IsbL-0970_LatLon0.15_PT111H.grib2 2026-04-12 16:46 746K
20260412T12Z_MSC_GDPS_GeopotentialHeight_IsbL-0985_LatLon0.15_PT111H.grib2 2026-04-12 16:46 761K
20260412T12Z_MSC_GDPS_GeopotentialHeight_IsbL-1000_LatLon0.15_PT111H.grib2 2026-04-12 16:46 782K
20260412T12Z_MSC_GDPS_GeopotentialHeight_IsbL-1015_LatLon0.15_PT111H.grib2 2026-04-12 16:46 804K
20260412T12Z_MSC_GDPS_Humidex_Sfc_LatLon0.15_PT111H.grib2 2026-04-12 16:46 5.3M
20260412T12Z_MSC_GDPS_IcePellets-Accum1h_Sfc_LatLon0.15_PT111H.grib2 2026-04-12 16:46 14K
20260412T12Z_MSC_GDPS_IcePellets-Accum3h_Sfc_LatLon0.15_PT111H.grib2 2026-04-12 16:46 13K
20260412T12Z_MSC_GDPS_IcePellets-Accum_Sfc_LatLon0.15_PT111H.grib2 2026-04-12 16:46 137K
20260412T12Z_MSC_GDPS_KIndex_Sfc_LatLon0.15_PT111H.grib2 2026-04-12 16:46 6.5M
20260412T12Z_MSC_GDPS_LatentHeatNetFlux_Sfc_LatLon0.15_PT111H.grib2 2026-04-12 16:46 652K
20260412T12Z_MSC_GDPS_LiftedIndex-MU-VT_IsbL-0500_LatLon0.15_PT111H.grib2 2026-04-12 16:46 5.4M
20260412T12Z_MSC_GDPS_NetLongwaveRadiationFlux-Accum_Sfc_LatLon0.15_PT111H.grib2 2026-04-12 16:46 1.0M
20260412T12Z_MSC_GDPS_NetShortwaveRadiationFlux-Accum_Sfc_LatLon0.15_PT111H.grib2 2026-04-12 16:46 1.0M
20260412T12Z_MSC_GDPS_O3MixingRatio_LatLon0.15_PT111H.grib2 2026-04-12 17:06 2.3M
20260412T12Z_MSC_GDPS_O3_EAtm_LatLon0.15_PT111H.grib2 2026-04-12 17:06 2.1M
20260412T12Z_MSC_GDPS_PlanetaryBoundaryLayerHeight_Sfc_LatLon0.15_PT111H.grib2 2026-04-12 16:46 2.4M
20260412T12Z_MSC_GDPS_Precip-Accum1h_Sfc_LatLon0.15_PT111H.grib2 2026-04-12 16:46 3.2M
20260412T12Z_MSC_GDPS_Precip-Accum3h_Sfc_LatLon0.15_PT111H.grib2 2026-04-12 16:46 3.4M
20260412T12Z_MSC_GDPS_Precip-Accum_Sfc_LatLon0.15_PT111H.grib2 2026-04-12 16:46 4.6M
20260412T12Z_MSC_GDPS_PrecipRate_Sfc_LatLon0.15_PT111H.grib2 2026-04-12 16:46 2.8M
20260412T12Z_MSC_GDPS_PrecipType-Instant_Sfc_LatLon0.15_PT111H.grib2 2026-04-12 16:46 1.5M
20260412T12Z_MSC_GDPS_Pressure_MSL_LatLon0.15_PT111H.grib2 2026-04-12 16:46 715K
20260412T12Z_MSC_GDPS_Pressure_PVU-1.5_LatLon0.15_PT111H.grib2 2026-04-12 16:46 5.8M
20260412T12Z_MSC_GDPS_Pressure_PVU-1_LatLon0.15_PT111H.grib2 2026-04-12 16:46 6.0M
20260412T12Z_MSC_GDPS_Pressure_PVU-2_LatLon0.15_PT111H.grib2 2026-04-12 16:46 6.0M
20260412T12Z_MSC_GDPS_Pressure_Sfc_LatLon0.15_PT111H.grib2 2026-04-12 16:46 1.1M
20260412T12Z_MSC_GDPS_RadiativeTemp_Sfc_LatLon0.15_PT111H.grib2 2026-04-12 16:46 664K
20260412T12Z_MSC_GDPS_Rain-Accum1h_Sfc_LatLon0.15_PT111H.grib2 2026-04-12 16:46 1.6M
20260412T12Z_MSC_GDPS_Rain-Accum3h_Sfc_LatLon0.15_PT111H.grib2 2026-04-12 16:46 1.8M
20260412T12Z_MSC_GDPS_Rain-Accum_Sfc_LatLon0.15_PT111H.grib2 2026-04-12 16:46 3.8M
20260412T12Z_MSC_GDPS_RelativeHumidity_AGL-2m_LatLon0.15_PT111H.grib2 2026-04-12 16:46 1.0M
20260412T12Z_MSC_GDPS_RelativeHumidity_IsbL-0010_LatLon0.15_PT111H.grib2 2026-04-12 16:46 242K
20260412T12Z_MSC_GDPS_RelativeHumidity_IsbL-0020_LatLon0.15_PT111H.grib2 2026-04-12 16:46 367K
20260412T12Z_MSC_GDPS_RelativeHumidity_IsbL-0030_LatLon0.15_PT111H.grib2 2026-04-12 16:46 378K
20260412T12Z_MSC_GDPS_RelativeHumidity_IsbL-0050_LatLon0.15_PT111H.grib2 2026-04-12 16:46 321K
20260412T12Z_MSC_GDPS_RelativeHumidity_IsbL-0100_LatLon0.15_PT111H.grib2 2026-04-12 16:46 489K
20260412T12Z_MSC_GDPS_RelativeHumidity_IsbL-0150_LatLon0.15_PT111H.grib2 2026-04-12 16:46 639K
20260412T12Z_MSC_GDPS_RelativeHumidity_IsbL-0175_LatLon0.15_PT111H.grib2 2026-04-12 16:46 768K
20260412T12Z_MSC_GDPS_RelativeHumidity_IsbL-0200_LatLon0.15_PT111H.grib2 2026-04-12 16:46 685K
20260412T12Z_MSC_GDPS_RelativeHumidity_IsbL-0225_LatLon0.15_PT111H.grib2 2026-04-12 16:46 780K
20260412T12Z_MSC_GDPS_RelativeHumidity_IsbL-0250_LatLon0.15_PT111H.grib2 2026-04-12 16:46 869K
20260412T12Z_MSC_GDPS_RelativeHumidity_IsbL-0275_LatLon0.15_PT111H.grib2 2026-04-12 16:46 893K
20260412T12Z_MSC_GDPS_RelativeHumidity_IsbL-0300_LatLon0.15_PT111H.grib2 2026-04-12 16:46 941K
20260412T12Z_MSC_GDPS_RelativeHumidity_IsbL-0350_LatLon0.15_PT111H.grib2 2026-04-12 16:46 965K
20260412T12Z_MSC_GDPS_RelativeHumidity_IsbL-0400_LatLon0.15_PT111H.grib2 2026-04-12 16:46 1.0M
20260412T12Z_MSC_GDPS_RelativeHumidity_IsbL-0450_LatLon0.15_PT111H.grib2 2026-04-12 16:46 1.0M
20260412T12Z_MSC_GDPS_RelativeHumidity_IsbL-0500_LatLon0.15_PT111H.grib2 2026-04-12 16:46 1.0M
20260412T12Z_MSC_GDPS_RelativeHumidity_IsbL-0550_LatLon0.15_PT111H.grib2 2026-04-12 16:46 1.0M
20260412T12Z_MSC_GDPS_RelativeHumidity_IsbL-0600_LatLon0.15_PT111H.grib2 2026-04-12 16:46 1.1M
20260412T12Z_MSC_GDPS_RelativeHumidity_IsbL-0650_LatLon0.15_PT111H.grib2 2026-04-12 16:46 1.1M
20260412T12Z_MSC_GDPS_RelativeHumidity_IsbL-0700_LatLon0.15_PT111H.grib2 2026-04-12 16:46 1.1M
20260412T12Z_MSC_GDPS_RelativeHumidity_IsbL-0750_LatLon0.15_PT111H.grib2 2026-04-12 16:46 1.2M
20260412T12Z_MSC_GDPS_RelativeHumidity_IsbL-0800_LatLon0.15_PT111H.grib2 2026-04-12 16:46 1.3M
20260412T12Z_MSC_GDPS_RelativeHumidity_IsbL-0850_LatLon0.15_PT111H.grib2 2026-04-12 16:46 1.3M
20260412T12Z_MSC_GDPS_RelativeHumidity_IsbL-0875_LatLon0.15_PT111H.grib2 2026-04-12 16:46 1.3M
20260412T12Z_MSC_GDPS_RelativeHumidity_IsbL-0900_LatLon0.15_PT111H.grib2 2026-04-12 16:46 1.2M
20260412T12Z_MSC_GDPS_RelativeHumidity_IsbL-0925_LatLon0.15_PT111H.grib2 2026-04-12 16:46 1.2M
20260412T12Z_MSC_GDPS_RelativeHumidity_IsbL-0950_LatLon0.15_PT111H.grib2 2026-04-12 16:46 1.2M
20260412T12Z_MSC_GDPS_RelativeHumidity_IsbL-0970_LatLon0.15_PT111H.grib2 2026-04-12 16:46 1.2M
20260412T12Z_MSC_GDPS_RelativeHumidity_IsbL-0985_LatLon0.15_PT111H.grib2 2026-04-12 16:46 1.2M
20260412T12Z_MSC_GDPS_RelativeHumidity_IsbL-1000_LatLon0.15_PT111H.grib2 2026-04-12 16:46 1.1M
20260412T12Z_MSC_GDPS_RelativeHumidity_IsbL-1015_LatLon0.15_PT111H.grib2 2026-04-12 16:46 1.0M
20260412T12Z_MSC_GDPS_RelativeVorticity_IsbL-0200_LatLon0.15_PT111H.grib2 2026-04-12 16:46 1.5M
20260412T12Z_MSC_GDPS_RelativeVorticity_IsbL-0250_LatLon0.15_PT111H.grib2 2026-04-12 16:46 1.3M
20260412T12Z_MSC_GDPS_RelativeVorticity_IsbL-0500_LatLon0.15_PT111H.grib2 2026-04-12 16:46 1.4M
20260412T12Z_MSC_GDPS_RelativeVorticity_IsbL-0700_LatLon0.15_PT111H.grib2 2026-04-12 16:46 1.6M
20260412T12Z_MSC_GDPS_RelativeVorticity_IsbL-0850_LatLon0.15_PT111H.grib2 2026-04-12 16:46 1.6M
20260412T12Z_MSC_GDPS_Runoff-Accum_Sfc_LatLon0.15_PT111H.grib2 2026-04-12 16:46 80K
20260412T12Z_MSC_GDPS_SensibleHeatNetFlux_Sfc_LatLon0.15_PT111H.grib2 2026-04-12 16:46 609K
20260412T12Z_MSC_GDPS_ShowalterIndex_IsbL-0500_LatLon0.15_PT111H.grib2 2026-04-12 16:46 6.2M
20260412T12Z_MSC_GDPS_Snow-Accum1h_Sfc_LatLon0.15_PT111H.grib2 2026-04-12 16:46 1.0M
20260412T12Z_MSC_GDPS_Snow-Accum3h_Sfc_LatLon0.15_PT111H.grib2 2026-04-12 16:46 1.1M
20260412T12Z_MSC_GDPS_Snow-Accum_Sfc_LatLon0.15_PT111H.grib2 2026-04-12 16:46 1.9M
20260412T12Z_MSC_GDPS_SnowDensity_Sfc_LatLon0.15_PT111H.grib2 2026-04-12 16:46 270K
20260412T12Z_MSC_GDPS_SnowDepth_Sfc_LatLon0.15_PT111H.grib2 2026-04-12 16:46 1.8M
20260412T12Z_MSC_GDPS_SoilTemp_DBS-0to10cm_LatLon0.15_PT111H.grib2 2026-04-12 16:46 508K
20260412T12Z_MSC_GDPS_SoilTemp_Sfc_LatLon0.15_PT111H.grib2 2026-04-12 16:46 579K
20260412T12Z_MSC_GDPS_SoilVolumetricIceContent_Sfc_LatLon0.15_PT111H.grib2 2026-04-12 16:46 225K
20260412T12Z_MSC_GDPS_SoilVolumetricWaterContent_DBS-0to10cm_LatLon0.15_PT111H.grib2 2026-04-12 16:46 551K
20260412T12Z_MSC_GDPS_SoilVolumetricWaterContent_DBS-0to1cm_LatLon0.15_PT111H.grib2 2026-04-12 16:46 655K
20260412T12Z_MSC_GDPS_SpecificHumidity_AGL-120m_LatLon0.15_PT111H.grib2 2026-04-12 16:46 1.1M
20260412T12Z_MSC_GDPS_SpecificHumidity_AGL-2m_LatLon0.15_PT111H.grib2 2026-04-12 16:46 1.2M
20260412T12Z_MSC_GDPS_SpecificHumidity_AGL-40m_LatLon0.15_PT111H.grib2 2026-04-12 16:46 1.1M
20260412T12Z_MSC_GDPS_SpecificHumidity_AGL-80m_LatLon0.15_PT111H.grib2 2026-04-12 16:46 1.1M
20260412T12Z_MSC_GDPS_SpecificHumidity_IsbL-0001_LatLon0.15_PT111H.grib2 2026-04-12 16:46 1.1M
20260412T12Z_MSC_GDPS_SpecificHumidity_IsbL-0005_LatLon0.15_PT111H.grib2 2026-04-12 16:46 1.1M
20260412T12Z_MSC_GDPS_SpecificHumidity_IsbL-0010_LatLon0.15_PT111H.grib2 2026-04-12 16:46 1.2M
20260412T12Z_MSC_GDPS_SpecificHumidity_IsbL-0020_LatLon0.15_PT111H.grib2 2026-04-12 16:46 1.3M
20260412T12Z_MSC_GDPS_SpecificHumidity_IsbL-0030_LatLon0.15_PT111H.grib2 2026-04-12 16:46 1.6M
20260412T12Z_MSC_GDPS_SpecificHumidity_IsbL-0050_LatLon0.15_PT111H.grib2 2026-04-12 16:46 1.3M
20260412T12Z_MSC_GDPS_SpecificHumidity_IsbL-0100_LatLon0.15_PT111H.grib2 2026-04-12 16:46 1.6M
20260412T12Z_MSC_GDPS_SpecificHumidity_IsbL-0150_LatLon0.15_PT111H.grib2 2026-04-12 16:46 1.3M
20260412T12Z_MSC_GDPS_SpecificHumidity_IsbL-0175_LatLon0.15_PT111H.grib2 2026-04-12 16:46 1.3M
20260412T12Z_MSC_GDPS_SpecificHumidity_IsbL-0200_LatLon0.15_PT111H.grib2 2026-04-12 16:46 1.3M
20260412T12Z_MSC_GDPS_SpecificHumidity_IsbL-0225_LatLon0.15_PT111H.grib2 2026-04-12 16:46 1.2M
20260412T12Z_MSC_GDPS_SpecificHumidity_IsbL-0250_LatLon0.15_PT111H.grib2 2026-04-12 16:46 1.2M
20260412T12Z_MSC_GDPS_SpecificHumidity_IsbL-0275_LatLon0.15_PT111H.grib2 2026-04-12 16:46 1.1M
20260412T12Z_MSC_GDPS_SpecificHumidity_IsbL-0300_LatLon0.15_PT111H.grib2 2026-04-12 16:46 1.2M
20260412T12Z_MSC_GDPS_SpecificHumidity_IsbL-0350_LatLon0.15_PT111H.grib2 2026-04-12 16:46 1.2M
20260412T12Z_MSC_GDPS_SpecificHumidity_IsbL-0400_LatLon0.15_PT111H.grib2 2026-04-12 16:46 1.4M
20260412T12Z_MSC_GDPS_SpecificHumidity_IsbL-0450_LatLon0.15_PT111H.grib2 2026-04-12 16:46 1.3M
20260412T12Z_MSC_GDPS_SpecificHumidity_IsbL-0500_LatLon0.15_PT111H.grib2 2026-04-12 16:46 1.5M
20260412T12Z_MSC_GDPS_SpecificHumidity_IsbL-0550_LatLon0.15_PT111H.grib2 2026-04-12 16:46 1.6M
20260412T12Z_MSC_GDPS_SpecificHumidity_IsbL-0600_LatLon0.15_PT111H.grib2 2026-04-12 16:46 1.4M
20260412T12Z_MSC_GDPS_SpecificHumidity_IsbL-0650_LatLon0.15_PT111H.grib2 2026-04-12 16:46 1.5M
20260412T12Z_MSC_GDPS_SpecificHumidity_IsbL-0700_LatLon0.15_PT111H.grib2 2026-04-12 16:46 1.6M
20260412T12Z_MSC_GDPS_SpecificHumidity_IsbL-0750_LatLon0.15_PT111H.grib2 2026-04-12 16:46 1.7M
20260412T12Z_MSC_GDPS_SpecificHumidity_IsbL-0800_LatLon0.15_PT111H.grib2 2026-04-12 16:46 1.8M
20260412T12Z_MSC_GDPS_SpecificHumidity_IsbL-0850_LatLon0.15_PT111H.grib2 2026-04-12 16:46 1.9M
20260412T12Z_MSC_GDPS_SpecificHumidity_IsbL-0875_LatLon0.15_PT111H.grib2 2026-04-12 16:46 1.9M
20260412T12Z_MSC_GDPS_SpecificHumidity_IsbL-0900_LatLon0.15_PT111H.grib2 2026-04-12 16:46 1.9M
20260412T12Z_MSC_GDPS_SpecificHumidity_IsbL-0925_LatLon0.15_PT111H.grib2 2026-04-12 16:46 1.9M
20260412T12Z_MSC_GDPS_SpecificHumidity_IsbL-0950_LatLon0.15_PT111H.grib2 2026-04-12 16:46 1.9M
20260412T12Z_MSC_GDPS_SpecificHumidity_IsbL-0970_LatLon0.15_PT111H.grib2 2026-04-12 16:46 1.5M
20260412T12Z_MSC_GDPS_SpecificHumidity_IsbL-0985_LatLon0.15_PT111H.grib2 2026-04-12 16:46 1.5M
20260412T12Z_MSC_GDPS_SpecificHumidity_IsbL-1000_LatLon0.15_PT111H.grib2 2026-04-12 16:46 1.5M
20260412T12Z_MSC_GDPS_SpecificHumidity_IsbL-1015_LatLon0.15_PT111H.grib2 2026-04-12 16:46 1.4M
20260412T12Z_MSC_GDPS_SpecificHumidity_Sfc_LatLon0.15_PT111H.grib2 2026-04-12 16:46 622K
20260412T12Z_MSC_GDPS_Thickness_IsbL-0850to0700_LatLon0.15_PT111H.grib2 2026-04-12 16:46 464K
20260412T12Z_MSC_GDPS_Thickness_IsbL-1000to0500_LatLon0.15_PT111H.grib2 2026-04-12 16:46 369K
20260412T12Z_MSC_GDPS_Thickness_IsbL-1000to0850_LatLon0.15_PT111H.grib2 2026-04-12 16:46 488K
20260412T12Z_MSC_GDPS_TotalCloudCover_Sfc_LatLon0.15_PT111H.grib2 2026-04-12 16:46 832K
20260412T12Z_MSC_GDPS_TotalTotalsIndex_Sfc_LatLon0.15_PT111H.grib2 2026-04-12 16:46 6.2M
20260412T12Z_MSC_GDPS_UVIndex-ClearSky_Sfc_LatLon0.15_PT111H.grib2 2026-04-12 17:06 1.0M
20260412T12Z_MSC_GDPS_UVIndex_Sfc_LatLon0.15_PT111H.grib2 2026-04-12 17:06 1.4M
20260412T12Z_MSC_GDPS_UpwardLongwaveRadiationFlux_NTAtm_LatLon0.15_PT111H.grib2 2026-04-12 16:46 829K
20260412T12Z_MSC_GDPS_VerticalVelocity_IsbL-0200_LatLon0.15_PT111H.grib2 2026-04-12 16:46 1.1M
20260412T12Z_MSC_GDPS_VerticalVelocity_IsbL-0250_LatLon0.15_PT111H.grib2 2026-04-12 16:46 1.0M
20260412T12Z_MSC_GDPS_VerticalVelocity_IsbL-0500_LatLon0.15_PT111H.grib2 2026-04-12 16:46 1.0M
20260412T12Z_MSC_GDPS_VerticalVelocity_IsbL-0600_LatLon0.15_PT111H.grib2 2026-04-12 16:46 1.0M
20260412T12Z_MSC_GDPS_VerticalVelocity_IsbL-0700_LatLon0.15_PT111H.grib2 2026-04-12 16:46 1.4M
20260412T12Z_MSC_GDPS_VerticalVelocity_IsbL-0850_LatLon0.15_PT111H.grib2 2026-04-12 16:46 1.6M
20260412T12Z_MSC_GDPS_WindChill_Sfc_LatLon0.15_PT111H.grib2 2026-04-12 16:46 5.4M
20260412T12Z_MSC_GDPS_WindDir_AGL-10m_LatLon0.15_PT111H.grib2 2026-04-12 16:46 1.4M
20260412T12Z_MSC_GDPS_WindDir_AGL-120m_LatLon0.15_PT111H.grib2 2026-04-12 16:46 1.4M
20260412T12Z_MSC_GDPS_WindDir_AGL-40m_LatLon0.15_PT111H.grib2 2026-04-12 16:46 1.4M
20260412T12Z_MSC_GDPS_WindDir_AGL-80m_LatLon0.15_PT111H.grib2 2026-04-12 16:46 1.4M
20260412T12Z_MSC_GDPS_WindDir_IsbL-0001_LatLon0.15_PT111H.grib2 2026-04-12 16:46 630K
20260412T12Z_MSC_GDPS_WindDir_IsbL-0005_LatLon0.15_PT111H.grib2 2026-04-12 16:46 773K
20260412T12Z_MSC_GDPS_WindDir_IsbL-0010_LatLon0.15_PT111H.grib2 2026-04-12 16:46 847K
20260412T12Z_MSC_GDPS_WindDir_IsbL-0020_LatLon0.15_PT111H.grib2 2026-04-12 16:46 904K
20260412T12Z_MSC_GDPS_WindDir_IsbL-0030_LatLon0.15_PT111H.grib2 2026-04-12 16:46 868K
20260412T12Z_MSC_GDPS_WindDir_IsbL-0050_LatLon0.15_PT111H.grib2 2026-04-12 16:46 933K
20260412T12Z_MSC_GDPS_WindDir_IsbL-0100_LatLon0.15_PT111H.grib2 2026-04-12 16:46 1.0M
20260412T12Z_MSC_GDPS_WindDir_IsbL-0150_LatLon0.15_PT111H.grib2 2026-04-12 16:46 1.0M
20260412T12Z_MSC_GDPS_WindDir_IsbL-0175_LatLon0.15_PT111H.grib2 2026-04-12 16:46 1.0M
20260412T12Z_MSC_GDPS_WindDir_IsbL-0200_LatLon0.15_PT111H.grib2 2026-04-12 16:46 1.1M
20260412T12Z_MSC_GDPS_WindDir_IsbL-0225_LatLon0.15_PT111H.grib2 2026-04-12 16:46 1.1M
20260412T12Z_MSC_GDPS_WindDir_IsbL-0250_LatLon0.15_PT111H.grib2 2026-04-12 16:46 1.1M
20260412T12Z_MSC_GDPS_WindDir_IsbL-0275_LatLon0.15_PT111H.grib2 2026-04-12 16:46 1.2M
20260412T12Z_MSC_GDPS_WindDir_IsbL-0300_LatLon0.15_PT111H.grib2 2026-04-12 16:46 1.2M
20260412T12Z_MSC_GDPS_WindDir_IsbL-0350_LatLon0.15_PT111H.grib2 2026-04-12 16:46 1.2M
20260412T12Z_MSC_GDPS_WindDir_IsbL-0400_LatLon0.15_PT111H.grib2 2026-04-12 16:46 1.3M
20260412T12Z_MSC_GDPS_WindDir_IsbL-0450_LatLon0.15_PT111H.grib2 2026-04-12 16:46 1.3M
20260412T12Z_MSC_GDPS_WindDir_IsbL-0500_LatLon0.15_PT111H.grib2 2026-04-12 16:46 1.4M
20260412T12Z_MSC_GDPS_WindDir_IsbL-0550_LatLon0.15_PT111H.grib2 2026-04-12 16:46 1.4M
20260412T12Z_MSC_GDPS_WindDir_IsbL-0600_LatLon0.15_PT111H.grib2 2026-04-12 16:46 1.4M
20260412T12Z_MSC_GDPS_WindDir_IsbL-0650_LatLon0.15_PT111H.grib2 2026-04-12 16:46 1.5M
20260412T12Z_MSC_GDPS_WindDir_IsbL-0700_LatLon0.15_PT111H.grib2 2026-04-12 16:46 1.6M
20260412T12Z_MSC_GDPS_WindDir_IsbL-0750_LatLon0.15_PT111H.grib2 2026-04-12 16:46 1.7M
20260412T12Z_MSC_GDPS_WindDir_IsbL-0800_LatLon0.15_PT111H.grib2 2026-04-12 16:46 1.8M
20260412T12Z_MSC_GDPS_WindDir_IsbL-0850_LatLon0.15_PT111H.grib2 2026-04-12 16:46 2.0M
20260412T12Z_MSC_GDPS_WindDir_IsbL-0875_LatLon0.15_PT111H.grib2 2026-04-12 16:46 2.0M
20260412T12Z_MSC_GDPS_WindDir_IsbL-0900_LatLon0.15_PT111H.grib2 2026-04-12 16:46 2.0M
20260412T12Z_MSC_GDPS_WindDir_IsbL-0925_LatLon0.15_PT111H.grib2 2026-04-12 16:46 2.0M
20260412T12Z_MSC_GDPS_WindDir_IsbL-0950_LatLon0.15_PT111H.grib2 2026-04-12 16:46 2.0M
20260412T12Z_MSC_GDPS_WindDir_IsbL-0970_LatLon0.15_PT111H.grib2 2026-04-12 16:46 2.0M
20260412T12Z_MSC_GDPS_WindDir_IsbL-0985_LatLon0.15_PT111H.grib2 2026-04-12 16:46 2.1M
20260412T12Z_MSC_GDPS_WindDir_IsbL-1000_LatLon0.15_PT111H.grib2 2026-04-12 16:46 2.1M
20260412T12Z_MSC_GDPS_WindDir_IsbL-1015_LatLon0.15_PT111H.grib2 2026-04-12 16:46 2.1M
20260412T12Z_MSC_GDPS_WindGust-Max_AGL-10m_LatLon0.15_PT111H.grib2 2026-04-12 16:46 2.3M
20260412T12Z_MSC_GDPS_WindGust-Min_AGL-10m_LatLon0.15_PT111H.grib2 2026-04-12 16:46 2.2M
20260412T12Z_MSC_GDPS_WindGust_AGL-10m_LatLon0.15_PT111H.grib2 2026-04-12 16:46 2.2M
20260412T12Z_MSC_GDPS_WindSpeed_AGL-10m_LatLon0.15_PT111H.grib2 2026-04-12 16:46 1.1M
20260412T12Z_MSC_GDPS_WindSpeed_AGL-120m_LatLon0.15_PT111H.grib2 2026-04-12 16:46 1.2M
20260412T12Z_MSC_GDPS_WindSpeed_AGL-40m_LatLon0.15_PT111H.grib2 2026-04-12 16:46 1.2M
20260412T12Z_MSC_GDPS_WindSpeed_AGL-80m_LatLon0.15_PT111H.grib2 2026-04-12 16:46 1.2M
20260412T12Z_MSC_GDPS_WindSpeed_IsbL-0001_LatLon0.15_PT111H.grib2 2026-04-12 16:46 632K
20260412T12Z_MSC_GDPS_WindSpeed_IsbL-0005_LatLon0.15_PT111H.grib2 2026-04-12 16:46 678K
20260412T12Z_MSC_GDPS_WindSpeed_IsbL-0010_LatLon0.15_PT111H.grib2 2026-04-12 16:46 696K
20260412T12Z_MSC_GDPS_WindSpeed_IsbL-0020_LatLon0.15_PT111H.grib2 2026-04-12 16:46 664K
20260412T12Z_MSC_GDPS_WindSpeed_IsbL-0030_LatLon0.15_PT111H.grib2 2026-04-12 16:46 850K
20260412T12Z_MSC_GDPS_WindSpeed_IsbL-0050_LatLon0.15_PT111H.grib2 2026-04-12 16:46 905K
20260412T12Z_MSC_GDPS_WindSpeed_IsbL-0100_LatLon0.15_PT111H.grib2 2026-04-12 16:46 1.1M
20260412T12Z_MSC_GDPS_WindSpeed_IsbL-0150_LatLon0.15_PT111H.grib2 2026-04-12 16:46 1.0M
20260412T12Z_MSC_GDPS_WindSpeed_IsbL-0175_LatLon0.15_PT111H.grib2 2026-04-12 16:46 1.0M
20260412T12Z_MSC_GDPS_WindSpeed_IsbL-0200_LatLon0.15_PT111H.grib2 2026-04-12 16:46 1.0M
20260412T12Z_MSC_GDPS_WindSpeed_IsbL-0225_LatLon0.15_PT111H.grib2 2026-04-12 16:46 1.1M
20260412T12Z_MSC_GDPS_WindSpeed_IsbL-0250_LatLon0.15_PT111H.grib2 2026-04-12 16:46 1.1M
20260412T12Z_MSC_GDPS_WindSpeed_IsbL-0275_LatLon0.15_PT111H.grib2 2026-04-12 16:46 1.1M
20260412T12Z_MSC_GDPS_WindSpeed_IsbL-0300_LatLon0.15_PT111H.grib2 2026-04-12 16:46 1.1M
20260412T12Z_MSC_GDPS_WindSpeed_IsbL-0350_LatLon0.15_PT111H.grib2 2026-04-12 16:46 1.1M
20260412T12Z_MSC_GDPS_WindSpeed_IsbL-0400_LatLon0.15_PT111H.grib2 2026-04-12 16:46 1.1M
20260412T12Z_MSC_GDPS_WindSpeed_IsbL-0450_LatLon0.15_PT111H.grib2 2026-04-12 16:46 1.1M
20260412T12Z_MSC_GDPS_WindSpeed_IsbL-0500_LatLon0.15_PT111H.grib2 2026-04-12 16:46 1.1M
20260412T12Z_MSC_GDPS_WindSpeed_IsbL-0550_LatLon0.15_PT111H.grib2 2026-04-12 16:46 1.1M
20260412T12Z_MSC_GDPS_WindSpeed_IsbL-0600_LatLon0.15_PT111H.grib2 2026-04-12 16:46 1.4M
20260412T12Z_MSC_GDPS_WindSpeed_IsbL-0650_LatLon0.15_PT111H.grib2 2026-04-12 16:46 1.4M
20260412T12Z_MSC_GDPS_WindSpeed_IsbL-0700_LatLon0.15_PT111H.grib2 2026-04-12 16:46 1.6M
20260412T12Z_MSC_GDPS_WindSpeed_IsbL-0750_LatLon0.15_PT111H.grib2 2026-04-12 16:46 1.6M
20260412T12Z_MSC_GDPS_WindSpeed_IsbL-0800_LatLon0.15_PT111H.grib2 2026-04-12 16:46 1.6M
20260412T12Z_MSC_GDPS_WindSpeed_IsbL-0850_LatLon0.15_PT111H.grib2 2026-04-12 16:46 1.8M
20260412T12Z_MSC_GDPS_WindSpeed_IsbL-0875_LatLon0.15_PT111H.grib2 2026-04-12 16:46 1.9M
20260412T12Z_MSC_GDPS_WindSpeed_IsbL-0900_LatLon0.15_PT111H.grib2 2026-04-12 16:46 1.9M
20260412T12Z_MSC_GDPS_WindSpeed_IsbL-0925_LatLon0.15_PT111H.grib2 2026-04-12 16:46 1.9M
20260412T12Z_MSC_GDPS_WindSpeed_IsbL-0950_LatLon0.15_PT111H.grib2 2026-04-12 16:46 1.9M
20260412T12Z_MSC_GDPS_WindSpeed_IsbL-0970_LatLon0.15_PT111H.grib2 2026-04-12 16:46 1.9M
20260412T12Z_MSC_GDPS_WindSpeed_IsbL-0985_LatLon0.15_PT111H.grib2 2026-04-12 16:46 1.9M
20260412T12Z_MSC_GDPS_WindSpeed_IsbL-1000_LatLon0.15_PT111H.grib2 2026-04-12 16:46 1.9M
20260412T12Z_MSC_GDPS_WindSpeed_IsbL-1015_LatLon0.15_PT111H.grib2 2026-04-12 16:46 1.8M
20260412T12Z_MSC_GDPS_WindU_AGL-10m_LatLon0.15_PT111H.grib2 2026-04-12 16:46 1.6M
20260412T12Z_MSC_GDPS_WindU_AGL-120m_LatLon0.15_PT111H.grib2 2026-04-12 16:46 972K
20260412T12Z_MSC_GDPS_WindU_AGL-40m_LatLon0.15_PT111H.grib2 2026-04-12 16:46 965K
20260412T12Z_MSC_GDPS_WindU_AGL-80m_LatLon0.15_PT111H.grib2 2026-04-12 16:46 971K
20260412T12Z_MSC_GDPS_WindU_IsbL-0001_LatLon0.15_PT111H.grib2 2026-04-12 16:46 490K
20260412T12Z_MSC_GDPS_WindU_IsbL-0005_LatLon0.15_PT111H.grib2 2026-04-12 16:46 678K
20260412T12Z_MSC_GDPS_WindU_IsbL-0010_LatLon0.15_PT111H.grib2 2026-04-12 16:46 692K
20260412T12Z_MSC_GDPS_WindU_IsbL-0020_LatLon0.15_PT111H.grib2 2026-04-12 16:46 729K
20260412T12Z_MSC_GDPS_WindU_IsbL-0030_LatLon0.15_PT111H.grib2 2026-04-12 16:46 729K
20260412T12Z_MSC_GDPS_WindU_IsbL-0050_LatLon0.15_PT111H.grib2 2026-04-12 16:46 696K
20260412T12Z_MSC_GDPS_WindU_IsbL-0100_LatLon0.15_PT111H.grib2 2026-04-12 16:46 923K
20260412T12Z_MSC_GDPS_WindU_IsbL-0150_LatLon0.15_PT111H.grib2 2026-04-12 16:46 1.0M
20260412T12Z_MSC_GDPS_WindU_IsbL-0175_LatLon0.15_PT111H.grib2 2026-04-12 16:46 803K
20260412T12Z_MSC_GDPS_WindU_IsbL-0200_LatLon0.15_PT111H.grib2 2026-04-12 16:46 837K
20260412T12Z_MSC_GDPS_WindU_IsbL-0225_LatLon0.15_PT111H.grib2 2026-04-12 16:46 1.1M
20260412T12Z_MSC_GDPS_WindU_IsbL-0250_LatLon0.15_PT111H.grib2 2026-04-12 16:46 853K
20260412T12Z_MSC_GDPS_WindU_IsbL-0275_LatLon0.15_PT111H.grib2 2026-04-12 16:46 881K
20260412T12Z_MSC_GDPS_WindU_IsbL-0300_LatLon0.15_PT111H.grib2 2026-04-12 16:46 872K
20260412T12Z_MSC_GDPS_WindU_IsbL-0350_LatLon0.15_PT111H.grib2 2026-04-12 16:46 887K
20260412T12Z_MSC_GDPS_WindU_IsbL-0400_LatLon0.15_PT111H.grib2 2026-04-12 16:46 886K
20260412T12Z_MSC_GDPS_WindU_IsbL-0450_LatLon0.15_PT111H.grib2 2026-04-12 16:46 1.1M
20260412T12Z_MSC_GDPS_WindU_IsbL-0500_LatLon0.15_PT111H.grib2 2026-04-12 16:46 1.1M
20260412T12Z_MSC_GDPS_WindU_IsbL-0550_LatLon0.15_PT111H.grib2 2026-04-12 16:46 1.1M
20260412T12Z_MSC_GDPS_WindU_IsbL-0600_LatLon0.15_PT111H.grib2 2026-04-12 16:46 1.1M
20260412T12Z_MSC_GDPS_WindU_IsbL-0650_LatLon0.15_PT111H.grib2 2026-04-12 16:46 1.2M
20260412T12Z_MSC_GDPS_WindU_IsbL-0700_LatLon0.15_PT111H.grib2 2026-04-12 16:46 1.2M
20260412T12Z_MSC_GDPS_WindU_IsbL-0750_LatLon0.15_PT111H.grib2 2026-04-12 16:46 1.3M
20260412T12Z_MSC_GDPS_WindU_IsbL-0800_LatLon0.15_PT111H.grib2 2026-04-12 16:46 1.3M
20260412T12Z_MSC_GDPS_WindU_IsbL-0850_LatLon0.15_PT111H.grib2 2026-04-12 16:46 1.4M
20260412T12Z_MSC_GDPS_WindU_IsbL-0875_LatLon0.15_PT111H.grib2 2026-04-12 16:46 1.4M
20260412T12Z_MSC_GDPS_WindU_IsbL-0900_LatLon0.15_PT111H.grib2 2026-04-12 16:46 1.5M
20260412T12Z_MSC_GDPS_WindU_IsbL-0925_LatLon0.15_PT111H.grib2 2026-04-12 16:46 1.5M
20260412T12Z_MSC_GDPS_WindU_IsbL-0950_LatLon0.15_PT111H.grib2 2026-04-12 16:46 1.4M
20260412T12Z_MSC_GDPS_WindU_IsbL-0970_LatLon0.15_PT111H.grib2 2026-04-12 16:46 1.4M
20260412T12Z_MSC_GDPS_WindU_IsbL-0985_LatLon0.15_PT111H.grib2 2026-04-12 16:46 1.4M
20260412T12Z_MSC_GDPS_WindU_IsbL-1000_LatLon0.15_PT111H.grib2 2026-04-12 16:46 1.7M
20260412T12Z_MSC_GDPS_WindU_IsbL-1015_LatLon0.15_PT111H.grib2 2026-04-12 16:46 1.6M
20260412T12Z_MSC_GDPS_WindV_AGL-10m_LatLon0.15_PT111H.grib2 2026-04-12 16:46 1.3M
20260412T12Z_MSC_GDPS_WindV_AGL-120m_LatLon0.15_PT111H.grib2 2026-04-12 16:46 1.0M
20260412T12Z_MSC_GDPS_WindV_AGL-40m_LatLon0.15_PT111H.grib2 2026-04-12 16:46 968K
20260412T12Z_MSC_GDPS_WindV_AGL-80m_LatLon0.15_PT111H.grib2 2026-04-12 16:46 1.0M
20260412T12Z_MSC_GDPS_WindV_IsbL-0001_LatLon0.15_PT111H.grib2 2026-04-12 16:46 752K
20260412T12Z_MSC_GDPS_WindV_IsbL-0005_LatLon0.15_PT111H.grib2 2026-04-12 16:46 765K
20260412T12Z_MSC_GDPS_WindV_IsbL-0010_LatLon0.15_PT111H.grib2 2026-04-12 16:46 869K
20260412T12Z_MSC_GDPS_WindV_IsbL-0020_LatLon0.15_PT111H.grib2 2026-04-12 16:46 849K
20260412T12Z_MSC_GDPS_WindV_IsbL-0030_LatLon0.15_PT111H.grib2 2026-04-12 16:46 848K
20260412T12Z_MSC_GDPS_WindV_IsbL-0050_LatLon0.15_PT111H.grib2 2026-04-12 16:46 700K
20260412T12Z_MSC_GDPS_WindV_IsbL-0100_LatLon0.15_PT111H.grib2 2026-04-12 16:46 852K
20260412T12Z_MSC_GDPS_WindV_IsbL-0150_LatLon0.15_PT111H.grib2 2026-04-12 16:46 972K
20260412T12Z_MSC_GDPS_WindV_IsbL-0175_LatLon0.15_PT111H.grib2 2026-04-12 16:46 1.0M
20260412T12Z_MSC_GDPS_WindV_IsbL-0200_LatLon0.15_PT111H.grib2 2026-04-12 16:46 1.0M
20260412T12Z_MSC_GDPS_WindV_IsbL-0225_LatLon0.15_PT111H.grib2 2026-04-12 16:46 844K
20260412T12Z_MSC_GDPS_WindV_IsbL-0250_LatLon0.15_PT111H.grib2 2026-04-12 16:46 846K
20260412T12Z_MSC_GDPS_WindV_IsbL-0275_LatLon0.15_PT111H.grib2 2026-04-12 16:46 875K
20260412T12Z_MSC_GDPS_WindV_IsbL-0300_LatLon0.15_PT111H.grib2 2026-04-12 16:46 863K
20260412T12Z_MSC_GDPS_WindV_IsbL-0350_LatLon0.15_PT111H.grib2 2026-04-12 16:46 878K
20260412T12Z_MSC_GDPS_WindV_IsbL-0400_LatLon0.15_PT111H.grib2 2026-04-12 16:46 876K
20260412T12Z_MSC_GDPS_WindV_IsbL-0450_LatLon0.15_PT111H.grib2 2026-04-12 16:46 1.1M
20260412T12Z_MSC_GDPS_WindV_IsbL-0500_LatLon0.15_PT111H.grib2 2026-04-12 16:46 1.1M
20260412T12Z_MSC_GDPS_WindV_IsbL-0550_LatLon0.15_PT111H.grib2 2026-04-12 16:46 1.1M
20260412T12Z_MSC_GDPS_WindV_IsbL-0600_LatLon0.15_PT111H.grib2 2026-04-12 16:46 1.1M
20260412T12Z_MSC_GDPS_WindV_IsbL-0650_LatLon0.15_PT111H.grib2 2026-04-12 16:46 1.1M
20260412T12Z_MSC_GDPS_WindV_IsbL-0700_LatLon0.15_PT111H.grib2 2026-04-12 16:46 1.1M
20260412T12Z_MSC_GDPS_WindV_IsbL-0750_LatLon0.15_PT111H.grib2 2026-04-12 16:46 1.2M
20260412T12Z_MSC_GDPS_WindV_IsbL-0800_LatLon0.15_PT111H.grib2 2026-04-12 16:46 1.3M
20260412T12Z_MSC_GDPS_WindV_IsbL-0850_LatLon0.15_PT111H.grib2 2026-04-12 16:46 1.4M
20260412T12Z_MSC_GDPS_WindV_IsbL-0875_LatLon0.15_PT111H.grib2 2026-04-12 16:46 1.4M
20260412T12Z_MSC_GDPS_WindV_IsbL-0900_LatLon0.15_PT111H.grib2 2026-04-12 16:46 1.5M
20260412T12Z_MSC_GDPS_WindV_IsbL-0925_LatLon0.15_PT111H.grib2 2026-04-12 16:46 1.4M
20260412T12Z_MSC_GDPS_WindV_IsbL-0950_LatLon0.15_PT111H.grib2 2026-04-12 16:46 1.4M
20260412T12Z_MSC_GDPS_WindV_IsbL-0970_LatLon0.15_PT111H.grib2 2026-04-12 16:46 1.4M
20260412T12Z_MSC_GDPS_WindV_IsbL-0985_LatLon0.15_PT111H.grib2 2026-04-12 16:46 1.4M
20260412T12Z_MSC_GDPS_WindV_IsbL-1000_LatLon0.15_PT111H.grib2 2026-04-12 16:46 1.4M
20260412T12Z_MSC_GDPS_WindV_IsbL-1015_LatLon0.15_PT111H.grib2 2026-04-12 16:46 1.3M